When you browse on this site, cookies collect data to enhance your experience and personalize the content and advertising you see.
Visit our Privacy Policy to learn more. By continuing to use the site, you agree to this use of cookies and data.
  • In Österreich
  • Länderverzeichnis
  • Für 7 Tage
  • Wassertemperatur
  • Wetterkarte
  • News
  • Widgets
  • user-avatar
    Anmelden

    Stündliche Wetter Hanoi

    Heute, 21 Januar, Dienstag

    Zeit Temperatur Niederschläge Wind Luftdruck Luftfeuchtigkeit
    00:00 +19°C° 0 mm 1 m/S 764 mmHg 82%
    01:00 +19°C° 0 mm 1 m/S 764 mmHg 84%
    02:00 +19°C° 0 mm 1 m/S 763 mmHg 86%
    03:00 +19°C° 0 mm 1 m/S 763 mmHg 87%
    04:00 +19°C° 0 mm 1 m/S 762 mmHg 88%
    05:00 +17°C° 0 mm 0 m/S 763 mmHg 88%
    06:00 +17°C° 0 mm 0 m/S 763 mmHg 89%
    07:00 +17°C° 0 mm 0 m/S 763 mmHg 89%
    08:00 +18°C° 0 mm 0 m/S 763 mmHg 87%
    09:00 +18°C° 0 mm 0 m/S 764 mmHg 85%
    10:00 +19°C° 0 mm 0 m/S 764 mmHg 83%
    11:00 +23°C° 0 mm 1 m/S 763 mmHg 77%
    12:00 +24°C° 0 mm 2 m/S 763 mmHg 71%
    13:00 +26°C° 0 mm 3 m/S 762 mmHg 66%
    14:00 +26°C° 0 mm 4 m/S 761 mmHg 64%
    15:00 +27°C° 0 mm 5 m/S 761 mmHg 62%
    16:00 +27°C° 0 mm 5 m/S 760 mmHg 61%
    17:00 +26°C° 0 mm 5 m/S 761 mmHg 65%
    18:00 +25°C° 0 mm 4 m/S 761 mmHg 70%
    19:00 +23°C° 0 mm 4 m/S 762 mmHg 74%
    20:00 +24°C° 0 mm 3 m/S 762 mmHg 78%
    21:00 +22°C° 0 mm 3 m/S 762 mmHg 82%
    22:00 +23°C° 0 mm 2 m/S 763 mmHg 86%
    23:00 +21°C° 0 mm 2 m/S 762 mmHg 87%

    Morgen, 22 Januar, Mittwoch

    Zeit Temperatur Niederschläge Wind Luftdruck Luftfeuchtigkeit
    00:00 +21°C° 0 mm 2 m/S 762 mmHg 89%
    01:00 +21°C° 0 mm 2 m/S 762 mmHg 90%
    02:00 +21°C° 0 mm 2 m/S 762 mmHg 90%
    03:00 +21°C° 0 mm 2 m/S 761 mmHg 90%
    04:00 +21°C° 0 mm 2 m/S 761 mmHg 90%
    05:00 +21°C° 0 mm 2 m/S 761 mmHg 90%
    06:00 +21°C° 0 mm 2 m/S 761 mmHg 90%
    07:00 +21°C° 0 mm 2 m/S 761 mmHg 90%
    08:00 +23°C° 0 mm 2 m/S 762 mmHg 85%
    09:00 +24°C° 0 mm 3 m/S 762 mmHg 81%
    10:00 +25°C° 0 mm 3 m/S 763 mmHg 77%
    11:00 +25°C° 0 mm 3 m/S 762 mmHg 73%
    12:00 +26°C° 0 mm 4 m/S 761 mmHg 70%
    13:00 +27°C° 0 mm 4 m/S 760 mmHg 67%
    14:00 +27°C° 0 mm 4 m/S 759 mmHg 66%
    15:00 +27°C° 0 mm 4 m/S 759 mmHg 65%
    16:00 +27°C° 0 mm 5 m/S 758 mmHg 64%
    17:00 +26°C° 0 mm 4 m/S 759 mmHg 68%
    18:00 +25°C° 0 mm 4 m/S 759 mmHg 71%
    19:00 +25°C° 0 mm 3 m/S 760 mmHg 75%
    20:00 +24°C° 0 mm 3 m/S 760 mmHg 78%
    21:00 +24°C° 0 mm 3 m/S 760 mmHg 80%
    22:00 +23°C° 0 mm 4 m/S 761 mmHg 82%
    23:00 +24°C° 0 mm 3 m/S 760 mmHg 84%

    übermorgen, 23 Januar, Donnerstag

    Zeit Temperatur Niederschläge Wind Luftdruck Luftfeuchtigkeit
    00:00 +22°C° 0 mm 3 m/S 760 mmHg 85%
    01:00 +22°C° 0 mm 3 m/S 760 mmHg 86%
    02:00 +23°C° 0 mm 2 m/S 759 mmHg 86%
    03:00 +23°C° 0 mm 2 m/S 759 mmHg 86%
    04:00 +23°C° 0 mm 2 m/S 759 mmHg 87%
    05:00 +23°C° 0 mm 2 m/S 759 mmHg 87%
    06:00 +23°C° 0 mm 2 m/S 759 mmHg 87%
    07:00 +23°C° 0 mm 2 m/S 760 mmHg 87%
    08:00 +24°C° 0 mm 3 m/S 760 mmHg 82%
    09:00 +25°C° 0 mm 3 m/S 760 mmHg 76%
    10:00 +26°C° 0 mm 4 m/S 761 mmHg 71%
    11:00 +26°C° 0 mm 4 m/S 760 mmHg 70%
    12:00 +26°C° 0 mm 4 m/S 759 mmHg 68%
    13:00 +27°C° 0 mm 4 m/S 759 mmHg 67%
    14:00 +27°C° 0 mm 4 m/S 758 mmHg 67%
    15:00 +27°C° 0 mm 4 m/S 757 mmHg 67%
    16:00 +27°C° 0 mm 4 m/S 757 mmHg 68%
    17:00 +26°C° 0 mm 4 m/S 757 mmHg 71%
    18:00 +26°C° 0 mm 4 m/S 758 mmHg 75%
    19:00 +25°C° 0 mm 4 m/S 758 mmHg 79%
    20:00 +25°C° 0 mm 3 m/S 759 mmHg 81%
    21:00 +25°C° 0 mm 3 m/S 759 mmHg 82%
    22:00 +25°C° 0 mm 3 m/S 759 mmHg 84%
    23:00 +24°C° 0.1 mm 3 m/S 759 mmHg 85%

    24 Januar, Freitag

    Zeit Temperatur Niederschläge Wind Luftdruck Luftfeuchtigkeit
    00:00 +24°C° 0.1 mm 3 m/S 759 mmHg 86%
    01:00 +24°C° 0.1 mm 3 m/S 759 mmHg 87%
    02:00 +24°C° 0.1 mm 3 m/S 758 mmHg 88%
    03:00 +24°C° 0.1 mm 2 m/S 758 mmHg 88%
    04:00 +24°C° 0.1 mm 2 m/S 758 mmHg 89%
    05:00 +24°C° 0.1 mm 3 m/S 758 mmHg 88%
    06:00 +24°C° 0.1 mm 3 m/S 759 mmHg 87%
    07:00 +24°C° 0.1 mm 3 m/S 759 mmHg 85%
    08:00 +25°C° 0.4 mm 4 m/S 759 mmHg 84%
    09:00 +25°C° 0.4 mm 4 m/S 760 mmHg 82%
    10:00 +25°C° 0.4 mm 5 m/S 760 mmHg 80%
    11:00 +26°C° 0.1 mm 5 m/S 759 mmHg 77%
    12:00 +27°C° 0.1 mm 5 m/S 758 mmHg 73%
    13:00 +27°C° 0.1 mm 5 m/S 757 mmHg 69%
    14:00 +27°C° 0 mm 5 m/S 757 mmHg 70%
    15:00 +27°C° 0 mm 5 m/S 757 mmHg 71%
    16:00 +27°C° 0 mm 5 m/S 756 mmHg 71%
    17:00 +26°C° 0.1 mm 5 m/S 756 mmHg 75%
    18:00 +26°C° 0.1 mm 4 m/S 756 mmHg 78%
    19:00 +25°C° 0.1 mm 4 m/S 757 mmHg 81%
    20:00 +25°C° 0.2 mm 4 m/S 757 mmHg 82%
    21:00 +25°C° 0.2 mm 4 m/S 758 mmHg 83%
    22:00 +25°C° 0.2 mm 4 m/S 758 mmHg 84%
    23:00 +23°C° 1 mm 4 m/S 758 mmHg 85%

    25 Januar, Samstag

    Zeit Temperatur Niederschläge Wind Luftdruck Luftfeuchtigkeit
    00:00 +23°C° 1 mm 4 m/S 757 mmHg 86%
    01:00 +23°C° 1 mm 4 m/S 757 mmHg 86%
    02:00 +23°C° 0.3 mm 4 m/S 757 mmHg 86%
    03:00 +22°C° 0.3 mm 4 m/S 757 mmHg 87%
    04:00 +22°C° 0.3 mm 3 m/S 757 mmHg 87%
    05:00 +22°C° 2.2 mm 3 m/S 757 mmHg 87%
    06:00 +22°C° 2.2 mm 3 m/S 758 mmHg 88%
    07:00 +21°C° 2.2 mm 3 m/S 758 mmHg 89%
    08:00 +20°C° 1.3 mm 5 m/S 759 mmHg 86%
    09:00 +19°C° 1.3 mm 6 m/S 759 mmHg 82%
    10:00 +17°C° 1.3 mm 7 m/S 760 mmHg 78%
    11:00 +17°C° 0.1 mm 7 m/S 759 mmHg 75%
    12:00 +18°C° 0.1 mm 7 m/S 759 mmHg 72%
    13:00 +19°C° 0.1 mm 6 m/S 758 mmHg 69%
    14:00 +17°C° 0.1 mm 6 m/S 758 mmHg 70%
    15:00 +17°C° 0.1 mm 6 m/S 758 mmHg 70%
    16:00 +17°C° 0.1 mm 6 m/S 758 mmHg 71%
    17:00 +16°C° 0.3 mm 6 m/S 759 mmHg 73%
    18:00 +16°C° 0.3 mm 6 m/S 759 mmHg 74%
    19:00 +15°C° 0.3 mm 6 m/S 760 mmHg 76%
    20:00 +15°C° 0.5 mm 6 m/S 761 mmHg 77%
    21:00 +15°C° 0.5 mm 5 m/S 761 mmHg 77%
    22:00 +15°C° 0.5 mm 5 m/S 762 mmHg 78%
    23:00 +15°C° 0.1 mm 5 m/S 762 mmHg 78%

    26 Januar, Sonntag

    Zeit Temperatur Niederschläge Wind Luftdruck Luftfeuchtigkeit
    00:00 +15°C° 0.1 mm 5 m/S 762 mmHg 77%
    01:00 +15°C° 0.1 mm 5 m/S 761 mmHg 77%
    02:00 +15°C° 0.1 mm 4 m/S 761 mmHg 76%
    03:00 +15°C° 0.1 mm 4 m/S 761 mmHg 76%
    04:00 +16°C° 0.1 mm 3 m/S 761 mmHg 75%
    05:00 +16°C° 0.3 mm 3 m/S 762 mmHg 75%
    06:00 +16°C° 0.3 mm 3 m/S 762 mmHg 74%
    07:00 +15°C° 0.3 mm 4 m/S 763 mmHg 74%
    08:00 +15°C° 0 mm 4 m/S 763 mmHg 71%
    09:00 +15°C° 0 mm 4 m/S 763 mmHg 68%
    10:00 +16°C° 0 mm 5 m/S 764 mmHg 65%
    11:00 +16°C° 0 mm 5 m/S 763 mmHg 63%
    12:00 +18°C° 0 mm 4 m/S 762 mmHg 61%
    13:00 +19°C° 0 mm 4 m/S 762 mmHg 59%
    14:00 +19°C° 0 mm 4 m/S 761 mmHg 59%
    15:00 +19°C° 0 mm 4 m/S 761 mmHg 59%
    16:00 +19°C° 0 mm 3 m/S 761 mmHg 59%
    17:00 +18°C° 0 mm 3 m/S 761 mmHg 61%
    18:00 +18°C° 0 mm 3 m/S 761 mmHg 64%
    19:00 +18°C° 0 mm 2 m/S 762 mmHg 66%
    20:00 +18°C° 0 mm 2 m/S 762 mmHg 67%
    21:00 +17°C° 0 mm 2 m/S 763 mmHg 68%
    22:00 +17°C° 0 mm 2 m/S 763 mmHg 69%
    23:00 +17°C° 0 mm 2 m/S 763 mmHg 70%
    Mehr zeigen